Flag Weather past 2 weeks in Udon Thani, Thailand

Now
82 °F

Passing clouds.


Feels Like: 85 °F
Forecast: 71 / 89 °F
Wind: 5 mph from North

Location: Udon Thani Airport

Current Time: Nov 26, 2014 at 11:35:35 AM

Latest Report: Nov 26, 2014 at 10:00 AM


Visibility: N/A

Pressure: 29.89 "Hg

Humidity: 62%

Dew point: 68 °F

Location of Udon ThaniLocation

Historic Weather in Udon Thani — Graph

°F

Udon Thani temperature yesterday

Maximum temperature yesterday: 90 °F (at 2:00 PM)
Minimum temperature yesterday: 64 °F (at 6:00 AM)
Average temperature yesterday: 79 °F

Past Weeks' High & Low Weather Summary

 TemperatureHumidityPressure
High91 °F (Nov 11, 2:00 PM)100% (Nov 21, 6:00 AM)30.12 "Hg (Nov 21, 6:00 AM)
Low63 °F (Nov 19, 6:00 AM)38% (Nov 24, 2:00 PM)29.77 "Hg (Nov 25, 3:00 PM)
Average80 °F63%29.95 "Hg
* Reported Nov 11 9:00 AM — Nov 26 9:00 AM, Udon Thani, Weather by CustomWeather, © 2014

Note: Actual official high and low records may vary slightly from our data, if they occured in-between our weather recording intervals... More about our weather records

Advertising

Udon Thani weather history for previous 24 hours

 ConditionsComfort  
Time TempWeatherWind HumidityBarometerVisibility
9:00 AM
Nov 26
77 °FSunny.6 mph69%29.89 "Hg10 mi
8:00 AM72 °FClear.5 mph83%29.89 "Hg4 mi
7:00 AM66 °FFog.5 mph94%29.86 "Hg2 mi
6:00 AM66 °FClear.No wind94%29.83 "Hg4 mi
10:00 PM
Nov 25
70 °FClear.No wind83%29.86 "Hg4 mi
9:00 PM73 °FClear.No wind74%29.83 "Hg5 mi
8:00 PM75 °FClear.2 mph65%29.83 "Hg5 mi
7:00 PM75 °FClear.2 mph65%29.80 "Hg6 mi
6:00 PM82 °FClear.3 mph55%29.80 "Hg10 mi
5:00 PM88 °FPassing clouds.5 mph43%29.77 "HgN/A
4:00 PM90 °FPassing clouds.5 mph41%29.77 "HgN/A
3:00 PM90 °FPassing clouds.7 mph41%29.77 "HgN/A
2:00 PM90 °FPassing clouds.7 mph43%29.80 "HgN/A
1:00 PM88 °FPassing clouds.8 mph46%29.83 "HgN/A
12:00 PM86 °FPassing clouds.7 mph49%29.89 "HgN/A
11:00 AM84 °FPassing clouds.7 mph51%29.92 "HgN/A
Weather by CustomWeather, © 2014

See weather overviewHow to use our weather pages